Probability
0 0 0 0 0 0 0 0 0 0 0 0 0 0 0 0 0 0 0 0 0 0 0 0 0 0 0 0 0 0 0 0 0 0 0 0 0 0 0 0 0 0 0
0 0 0 0 0 0 0 0 0 0 0 0 0 0 0 0 0 0 0 0 0 0 0 0 0 0 0 0 0 0 0 0 0 0 0 0 0 0 0 0 0 0 0
0 0 0 0 0 0 0 0 0 0 0 0 0 0 0 0 0 0 0 0 0 0 0 0 0 0 0 0 0 0 0 0 0 0 0 0 0 0 0 0 0 0 0
0 0 0 0 0 0 0 0 0 0 0 0 0 0 0 0 0 0 0 0 0 0 0 0 0 0 0 0 0 0 0 0 0 0 0 0 0 0 0 0 0 0 0
0 0 0 0 0 0 0 0 0 0 0 0 0 0 0 0 0 0 0 0 0 0 0 0 0 0 0 0 0 0 0 0 0 0 0 0 0 0 0 0 0 0 0
0 0 0 0 0 0 0 0 0 0 0 0 0 0 0 0 0 0 0 0 0 0 0 0 0 0 0 0 0 0 0 0 0 0 0 0 0 0 0 0 0 0 0
0 0 0 0 0 0 0 0 0 0 0 0 0 0 0 0 0 0 0 0 0 0 0 0 0 0 0 0 0 0 0 0 0 0 0 0 0 0 0 0 0 0 0
0 0 0 0 0 0 0 0 0 0 0 0 0 0 0 0 0 0 0 0 0 0 0 0 0 0 0 0 0 0 0 0 0 0 0 0 0 0 0 0 0 0 0
0 0 0 0 0 0 0 0 0 0 0 0 0 0 0 0 0 0 0 0 0 0 0 0 0 0 0 0 0 0 0 0 0 0 0 0 0 0 0 0 0 0 0
0 0 0 0 0 0 0 0 0 0 0 0 0 0 0 0 0 0 0 0 0 0 0 0 0 0 0 0 0 0 0 0 0 0 0 0 0 0 0 0 0 0 0
0 0 0 0 0 0 0 0 0 0 0 0 0 0 0 0 0 0 0 0 0 0 0 0 0 0 0 0 0 0 0 0 0 0 0 0 0 0 0 0 0 0 0
0 0 0 0 0 0 0 0 0 0 0 0 0 0 0 0 0 0 0 0 0 0 0 0 0 0 0 0 0 0 0 0 0 0 0 0 0 0 0 0 0 0 0
0 0 0 0 0 0 0 0 0 0 0 0 0 0 0 0 0 0 0 0 0 0 0 0 0 0 0 0 0 0 0 0 0 0 0 0 0 0 0 0 0 0 0
0 0 0 0 0 0 0 0 0 0 0 0 0 0 0 0 0 0 0 0 0 0 0 0 0 0 0 0 0 0 0 0 0 0 0 0 0 0 0 0 0 0 0
0 0 0 0 0 0 0 0 0 0 0 0 0 0 0 0 0 0 0 0 0 0 0 0 0 0 0 0 0 0 0 0 0 0 0 0 0 0 0 0 0 0 0
0 0 0 0 0 0 0 0 0 0 0 0 0 0 0 0 0 0 0 0 0 0 0 0 0 0 0 0 0 0 0 0 0 0 0 0 0 0 0 0 0 0 0
0 0 0 0 0 0 0 0 0 0 0 0 0 0 0 0 0 0 0 0 0 0 0 0 0 0 0 0 0 0 0 0 0 0 0 0 0 0 0 0 0 0 0
0 0 0 0 0 0 0 0 0 0 0 0 0 0 0 0 0 0 0 0 0 0 0 0 0 0 0 0 0 0 0 0 0 0 0 0 0 0 0 0 0 0 0
0 0 0 0 0 0 0 0 0 0 0 0 0 0 0 0 0 0 0 0 0 0 0 0 0 0 0 0 0 0 0 0 0 0 0 0 0 0 0 0 0 0 0
0 0 0 0 0 0 0 0 0 0 0 0 0 0 0 0 0 0 0 0 0 0 0 0 0 0 0 0 0 0 0 0 0 0 0 0 0 0 0 0 0 0 0
0 0 0 0 0 0 0 0 0 0 0 0 0 0 0 0 0 0 0 0 0 0 0 0 0 0 0 0 0 0 0 0 0 0 0 0 0 0 0 0 0 0 0
0 0 0 0 0 0 0 0 0 0 0 0 0 0 0 0 0 0 0 0 0 0 0 0 0 0 0 0 0 0 0 0 0 0 0 0 0 0 0 0 0 0 0
0 0 0 0 0 0 0 0 0 0 0 0 0 0 0 0 0 0 0 0 0 0 0 0 0 0 0 0 0 0 0 0 0 0 0 0 0 0 0 0 0 0 0
0 0 0 0 0 0 0 0 0 0 0 0 0 0 0 0 0 0 0 0 0 0 0 0 0 0 0 0 0 0 0 0 0 0 0 0 0 0 0 0 0 0 0
0 0 0 0 0 0 0 0 0 0 0 0 0 0 0 0 0 0 0 0 0 0 0 0 0 0 0 0 0 0 0 0 0 0 0 0 0 0 0 0 0 0 0
0 0 0 0 0 0 0 0 0 0 0 0 0 0 0 0 0 0 0 0 0 0 0 0 0 0 0 0 0 0 0 0 0 0 0 0 0 0 0 0 0 0 0
Wind_Speed
3 2 4 8 11 12 12 12 12 13 13 14 14 14 14 13 13 12 12 11 12 12 13 14 14 14 13 13 12 12 12 12 13 13 13 13 10 8 5 3 5 4 7
7 4 6 8 11 12 12 13 13 13 14 14 14 14 13 13 12 11 11 11 12 12 13 13 13 13 13 13 13 13 14 14 14 14 13 11 11 7 3 3 5 5 8
8 5 6 9 11 12 12 12 12 13 13 13 13 13 12 12 11 11 11 10 10 11 11 11 12 12 12 12 13 13 14 15 15 15 12 7 7 8 7 7 8 9 10
9 6 6 10 11 12 12 12 11 12 12 12 12 12 12 11 11 11 11 11 11 11 11 11 11 11 11 12 12 13 14 15 16 15 8 7 6 9 10 10 10 11 11
8 6 7 11 12 12 12 12 11 11 12 12 12 12 12 12 12 12 12 11 11 11 11 11 11 11 11 11 12 13 14 15 16 12 8 7 6 9 9 10 10 10 11
7 6 7 13 13 13 13 13 12 12 12 13 12 12 12 12 12 12 12 12 12 12 11 11 11 11 11 12 13 14 14 14 12 8 8 7 7 10 9 9 9 10 10
7 6 7 12 14 14 14 14 14 13 14 14 14 13 13 13 12 12 12 12 12 12 12 12 12 11 12 13 13 14 15 15 9 7 7 7 10 14 12 11 11 12 12
8 6 6 11 12 14 15 15 14 14 14 15 15 14 14 13 13 12 12 12 12 12 12 12 12 12 13 13 14 15 16 15 10 9 7 7 15 17 15 15 14 14 14
7 6 5 5 8 12 13 14 14 14 14 15 15 15 14 14 13 12 12 12 12 12 12 12 13 13 13 13 14 15 15 16 9 6 8 7 15 16 15 16 16 15 15
7 7 6 5 4 5 7 12 13 14 14 14 14 14 14 13 12 12 10 11 12 12 12 12 12 12 12 13 14 14 14 12 7 7 5 9 16 15 15 15 15 15 15
8 8 8 7 6 5 5 8 10 12 13 13 11 13 11 6 6 6 8 11 11 11 11 11 12 12 11 12 13 13 11 5 6 5 4 13 15 15 15 15 14 14 14
14 12 10 9 8 7 6 5 4 4 6 5 5 6 5 5 4 5 9 10 10 9 10 11 11 10 8 4 7 9 4 5 4 4 6 14 15 15 14 14 14 14 14
13 12 12 12 10 9 5 5 3 3 3 4 6 6 5 4 4 4 3 4 4 6 4 5 5 4 4 3 3 4 4 4 3 3 6 14 14 14 13 13 13 14 14
10 14 13 13 12 10 7 6 5 4 4 4 5 7 5 4 4 4 3 3 2 2 2 3 2 4 4 5 5 5 5 3 3 3 5 13 13 12 12 13 13 14 15
13 14 14 14 14 12 9 6 7 6 5 5 5 6 7 5 5 4 3 3 3 2 2 3 3 4 4 4 5 6 6 5 4 4 4 11 12 11 12 13 14 15 16
18 17 14 15 14 12 10 8 7 7 6 5 5 6 7 6 5 5 4 4 3 2 2 2 3 3 3 3 5 6 6 5 5 5 4 6 10 11 11 13 14 15 16
17 15 16 15 14 14 13 10 7 7 6 6 6 6 7 6 6 5 5 4 3 3 3 3 3 3 2 3 4 5 5 5 5 5 5 3 4 8 10 12 14 15 17
14 15 17 16 16 16 13 11 8 7 7 6 6 6 7 7 7 6 5 4 4 3 3 3 2 2 2 3 4 4 4 4 5 5 4 4 3 3 6 11 13 15 17
18 18 19 19 19 17 14 10 8 8 8 7 6 6 7 8 8 6 5 4 5 3 3 2 2 2 2 3 4 4 4 4 4 4 4 3 3 3 2 7 12 14 17
17 17 19 18 17 15 11 7 6 7 7 6 7 7 8 7 8 6 5 5 5 4 3 2 2 2 1 2 3 4 4 4 4 2 2 2 3 3 3 4 5 8 15
14 17 19 20 18 15 12 12 10 10 8 7 8 9 10 8 8 7 5 6 5 4 5 4 3 3 2 2 3 4 4 4 3 1 2 3 4 4 3 4 4 4 6
19 20 20 21 20 20 15 12 6 6 6 6 6 8 10 10 10 8 7 6 6 5 5 4 4 3 2 2 3 3 5 5 4 4 4 3 4 3 3 4 5 4 4
19 22 21 22 21 19 14 9 6 4 3 5 7 9 11 11 11 9 9 7 7 6 6 5 5 5 4 1 2 3 2 2 5 4 4 3 3 2 3 4 5 4 6
21 19 19 20 18 17 16 16 16 13 14 13 8 8 9 11 11 10 9 8 7 6 6 6 5 4 5 4 2 2 2 3 1 6 4 3 4 4 4 5 4 5 7
16 16 17 17 17 17 18 20 18 15 11 5 5 10 10 9 10 11 10 9 8 6 7 7 6 5 4 5 4 3 2 2 3 3 7 6 4 3 3 4 5 6 7
11 12 14 17 18 18 20 19 20 19 13 11 11 12 10 7 8 11 11 10 9 7 8 7 6 7 5 5 4 4 4 4 3 4 5 6 7 5 6 6 6 6 5
Wind_Direction
168 174 122 129 130 128 125 123 120 118 114 109 103 99 93 87 81 73 68 65 63 62 59 56 52 48 43 38 35 32 27 18 8 2 356 351 344 330 323 353 4 5 11
158 155 132 124 121 120 119 118 117 116 111 107 102 98 94 89 83 77 70 66 64 61 57 53 48 43 38 33 30 26 19 10 4 359 355 353 351 352 355 29 18 10 10
144 141 136 132 127 122 120 117 113 109 106 103 101 99 97 94 91 86 79 72 69 65 60 55 49 42 35 28 23 18 12 5 0 357 358 357 354 26 43 42 29 20 12
143 143 144 139 134 131 125 119 116 112 108 106 106 104 102 99 95 89 83 76 71 67 62 56 50 43 35 28 22 16 9 3 359 358 360 354 354 26 42 38 29 19 9
139 144 152 147 143 139 135 130 125 121 117 115 112 109 105 101 97 92 87 81 75 70 64 57 50 44 37 30 25 18 12 5 2 1 353 350 348 2 30 36 28 17 5
141 146 157 153 150 147 143 138 134 131 126 122 117 113 108 104 99 95 90 85 80 74 68 62 55 49 43 37 31 24 18 14 11 358 354 355 351 350 12 29 27 15 4
145 150 161 158 156 153 149 145 141 137 133 128 124 119 114 109 104 100 95 89 84 78 71 66 60 55 50 44 37 31 28 24 20 4 359 2 2 5 11 18 17 9 2
147 152 160 160 160 158 153 149 146 143 139 135 130 125 120 114 109 104 99 95 90 82 75 69 63 58 52 45 40 35 32 29 17 8 3 6 6 9 12 12 8 3 357
146 145 146 155 161 160 154 152 150 147 143 139 134 128 122 117 111 106 102 99 93 85 78 73 66 59 52 46 41 35 28 24 19 9 10 3 3 4 6 5 1 356 352
156 157 154 152 150 150 153 152 151 150 148 144 137 131 125 119 114 107 101 100 94 88 83 77 68 61 51 45 39 33 27 21 12 5 2 357 359 1 1 1 358 354 350
180 179 168 165 162 156 154 157 153 154 155 148 143 140 127 115 110 104 103 100 95 90 84 77 67 60 52 41 35 31 24 11 8 1 357 355 359 358 357 357 355 353 351
193 189 180 174 172 168 169 153 153 154 154 148 146 140 136 136 138 123 109 104 95 86 80 74 66 55 49 33 24 24 12 2 6 355 354 356 358 355 354 355 355 354 354
191 188 185 181 177 176 172 166 169 163 163 162 159 152 143 132 127 113 104 101 94 84 71 64 56 44 36 27 15 9 2 359 350 340 342 353 354 354 356 359 360 0 0
189 195 187 182 180 182 176 176 175 173 175 175 171 160 148 144 143 144 140 139 124 115 98 74 58 42 32 21 12 2 353 348 338 334 333 348 351 356 0 5 7 7 6
201 197 190 183 183 182 179 183 181 184 183 179 173 169 161 157 158 155 153 149 144 132 110 90 66 47 31 17 8 356 341 336 333 336 330 337 346 355 3 7 10 9 7
207 201 191 189 186 180 183 187 183 184 181 179 179 176 168 162 160 158 154 153 152 146 130 112 92 68 39 12 354 341 327 324 326 326 321 327 338 348 357 4 7 8 7
207 197 192 191 185 185 186 187 182 182 179 183 184 177 170 165 162 157 155 158 162 152 133 112 96 78 50 11 342 326 318 320 321 321 319 316 325 340 352 1 8 9 7
199 194 194 192 189 190 187 184 182 181 181 184 181 176 173 168 163 158 159 164 163 149 138 127 105 84 41 3 332 316 313 313 318 317 318 323 330 337 349 7 15 11 4
201 194 192 192 190 190 185 180 179 177 183 181 178 180 178 172 167 162 164 164 158 146 143 136 102 97 39 349 320 309 312 315 313 315 323 334 345 351 0 12 18 11 359
202 195 192 191 188 182 176 169 171 179 184 180 183 186 180 176 169 162 162 164 156 143 141 130 118 93 61 331 323 320 312 311 306 306 331 354 353 2 19 25 26 4 351
198 194 191 189 185 177 179 182 184 191 188 188 190 187 182 177 172 167 166 164 161 158 161 154 135 106 60 360 13 347 335 326 338 33 8 353 355 356 8 30 19 359 340
199 197 193 191 185 186 188 185 177 168 182 188 187 187 185 180 177 177 171 170 167 158 160 163 155 135 98 44 81 40 354 345 341 354 342 345 342 346 352 0 350 338 329
201 198 194 192 188 187 175 161 140 135 131 178 196 194 191 185 182 178 175 171 172 167 169 171 168 150 140 106 101 117 93 302 310 313 310 308 306 312 312 325 315 316 318
206 197 194 189 185 181 171 176 176 187 196 198 189 185 185 187 184 179 175 175 174 172 171 175 173 163 143 144 131 121 145 157 263 310 290 260 265 273 276 293 292 291 290
199 190 190 183 182 178 180 184 188 198 200 171 166 178 186 189 186 181 177 177 178 176 175 174 167 167 156 150 153 147 146 164 196 240 291 302 295 252 254 264 265 270 274
184 181 180 181 184 182 185 187 193 198 188 179 186 189 190 187 188 187 181 181 181 179 179 177 171 171 167 156 156 159 162 173 185 207 261 292 299 287 282 265 257 256 257